| time (UTC) | temp C | wind direction | speed KPH | gust KPH | rain 1hr cm | rain 24hr cm | rain mn cm | humidity % | barometer mb |
| 20260505171558 | 26 | 212 | 1.6 | 17.7 | 0.00 | 0.00 | 0.00 | 79 | 1010.2 |
| 20260505170059 | 26 | 173 | 6.4 | 19.3 | 0.00 | 0.00 | 0.00 | 79 | 1010.3 |
| 20260505164557 | 26 | 210 | 8.0 | 20.9 | 0.00 | 0.00 | 0.00 | 79 | 1010.3 |
| 20260505163059 | 26 | 179 | 1.6 | 19.3 | 0.00 | 0.00 | 0.00 | 80 | 1010.2 |
| 20260505161622 | 26 | 215 | 4.8 | 14.5 | 0.00 | 0.00 | 0.00 | 79 | 1010.2 |
| 20260505160106 | 26 | 211 | 6.4 | 19.3 | 0.00 | 0.00 | 0.00 | 79 | 1010.1 |
| 20260505153058 | 26 | 183 | 3.2 | 16.1 | 0.00 | 0.00 | 0.00 | 80 | 1009.9 |
| 20260505151603 | 25 | 185 | 6.4 | 20.9 | 0.00 | 0.00 | 0.00 | 81 | 1009.8 |
| 20260505140108 | 25 | 189 | 3.2 | 17.7 | 0.00 | 0.00 | 0.00 | 85 | 1009.9 |
| 20260505130110 | 23 | 187 | 3.2 | 12.9 | 0.00 | 0.00 | 0.00 | 87 | 1009.7 |
| 20260505124619 | 23 | 168 | 3.2 | 16.1 | 0.00 | 0.00 | 0.00 | 88 | 1009.5 |
| 20260505123117 | 23 | 171 | 3.2 | 16.1 | 0.00 | 0.00 | 0.00 | 88 | 1009.5 |
| 20260505121600 | 22 | 0 | 3.2 | 12.9 | 0.00 | 0.00 | 0.00 | 87 | 1009.3 |
| 20260505120059 | 22 | 178 | 3.2 | 11.3 | 0.00 | 0.00 | 0.00 | 87 | 1009.0 |
| 20260505114601 | 22 | 177 | 1.6 | 9.7 | 0.00 | 0.00 | 0.00 | 87 | 1009.5 |
| 20260505113111 | 22 | 167 | 3.2 | 11.3 | 0.00 | 0.00 | 0.00 | 87 | 1009.4 |
| 20260505111600 | 22 | 174 | 1.6 | 11.3 | 0.00 | 0.00 | 0.00 | 87 | 1009.2 |
| 20260505101629 | 22 | 167 | 1.6 | 14.5 | 0.00 | 0.00 | 0.00 | 87 | 1009.2 |
| 20260505100101 | 22 | 168 | 3.2 | 12.9 | 0.00 | 0.00 | 0.00 | 87 | 1009.4 |
| 20260505094559 | 22 | 0 | 3.2 | 12.9 | 0.00 | 0.00 | 0.00 | 86 | 1009.2 |
| 20260505093059 | 22 | 171 | 0.0 | 9.7 | 0.00 | 0.00 | 0.00 | 86 | 1009.2 |
| 20260505091616 | 22 | 174 | 3.2 | 11.3 | 0.00 | 0.00 | 0.00 | 86 | 1009.5 |
| 20260505090057 | 22 | 167 | 1.6 | 9.7 | 0.00 | 0.00 | 0.00 | 86 | 1009.5 |
| 20260505084556 | 22 | 173 | 1.6 | 6.4 | 0.00 | 0.00 | 0.00 | 86 | 1009.6 |
| 20260505083105 | 22 | 169 | 1.6 | 11.3 | 0.00 | 0.00 | 0.00 | 86 | 1009.6 |
| 20260505081604 | 22 | 184 | 0.0 | 11.3 | 0.00 | 0.00 | 0.00 | 85 | 1009.7 |
| 20260505080115 | 22 | 0 | 3.2 | 12.9 | 0.00 | 0.00 | 0.00 | 85 | 1009.8 |
| 20260505074607 | 22 | 169 | 1.6 | 11.3 | 0.00 | 0.00 | 0.00 | 85 | 1009.8 |
| 20260505073058 | 22 | 0 | 3.2 | 11.3 | 0.00 | 0.00 | 0.00 | 84 | 1010.0 |
| 20260505071605 | 22 | 0 | 0.0 | 11.3 | 0.00 | 0.00 | 0.00 | 84 | 1010.0 |
| 20260505070059 | 21 | 170 | 3.2 | 12.9 | 0.00 | 0.00 | 0.00 | 83 | 1010.1 |
| 20260505064558 | 21 | 0 | 1.6 | 11.3 | 0.00 | 0.00 | 0.00 | 83 | 1010.4 |
| 20260505063139 | 22 | 198 | 0.0 | 12.9 | 0.00 | 0.00 | 0.00 | 82 | 1010.7 |
| 20260505061636 | 22 | 0 | 1.6 | 11.3 | 0.00 | 0.00 | 0.00 | 82 | 1011.0 |
| 20260505060105 | 22 | 209 | 1.6 | 11.3 | 0.00 | 0.00 | 0.00 | 81 | 1010.9 |
| 20260505054608 | 22 | 0 | 1.6 | 11.3 | 0.00 | 0.00 | 0.00 | 81 | 1010.8 |
| 20260505053100 | 22 | 0 | 1.6 | 12.9 | 0.00 | 0.00 | 0.00 | 80 | 1011.2 |
| 20260505051614 | 22 | 175 | 1.6 | 12.9 | 0.00 | 0.00 | 0.00 | 79 | 1011.2 |
| 20260505041600 | 22 | 170 | 3.2 | 19.3 | 0.00 | 0.00 | 0.00 | 77 | 1011.2 |
| 20260505040104 | 22 | 179 | 0.0 | 17.7 | 0.00 | 0.00 | 0.00 | 76 | 1011.7 |
| 20260505034558 | 23 | 160 | 6.4 | 19.3 | 0.00 | 0.00 | 0.00 | 75 | 1011.8 |
| 20260505033059 | 23 | 172 | 6.4 | 20.9 | 0.00 | 0.00 | 0.00 | 75 | 1011.8 |
| 20260505031600 | 23 | 0 | 8.0 | 17.7 | 0.00 | 0.00 | 0.00 | 74 | 1011.7 |
| 20260505030103 | 23 | 178 | 6.4 | 19.3 | 0.00 | 0.00 | 0.00 | 74 | 1011.7 |
| 20260505024558 | 23 | 160 | 8.0 | 17.7 | 0.00 | 0.00 | 0.00 | 74 | 1011.8 |
| 20260505023058 | 23 | 0 | 1.6 | 17.7 | 0.00 | 0.00 | 0.00 | 74 | 1011.7 |
| 20260505021557 | 23 | 187 | 4.8 | 22.5 | 0.00 | 0.00 | 0.00 | 73 | 1011.7 |
| 20260505020106 | 23 | 168 | 6.4 | 19.3 | 0.00 | 0.00 | 0.00 | 73 | 1011.6 |
| 20260505014600 | 23 | 0 | 6.4 | 19.3 | 0.00 | 0.00 | 0.00 | 72 | 1011.4 |
| 20260505013106 | 24 | 223 | 6.4 | 24.1 | 0.00 | 0.00 | 0.00 | 71 | 1011.3 |
| 20260505011601 | 24 | 184 | 6.4 | 19.3 | 0.00 | 0.00 | 0.00 | 69 | 1011.2 |
| 20260505010128 | 25 | 158 | 6.4 | 17.7 | 0.00 | 0.00 | 0.00 | 68 | 1011.1 |
| 20260505004559 | 25 | 204 | 6.4 | 16.1 | 0.00 | 0.00 | 0.00 | 67 | 1011.0 |
| 20260505003100 | 25 | 186 | 3.2 | 22.5 | 0.00 | 0.00 | 0.00 | 65 | 1010.9 |
| 20260505001604 | 26 | 210 | 8.0 | 20.9 | 0.00 | 0.00 | 0.00 | 64 | 1010.9 |
| 20260504234559 | 26 | 169 | 4.8 | 17.7 | 0.00 | 0.00 | 0.00 | 64 | 1011.1 |
| 20260504233109 | 26 | 173 | 3.2 | 24.1 | 0.00 | 0.00 | 0.00 | 64 | 1011.4 |
| 20260504231604 | 26 | 219 | 3.2 | 24.1 | 0.00 | 0.00 | 0.00 | 63 | 1011.5 |
| 20260504230100 | 26 | 186 | 6.4 | 20.9 | 0.00 | 0.00 | 0.00 | 62 | 1011.6 |
| 20260504224558 | 26 | 189 | 9.7 | 24.1 | 0.00 | 0.00 | 0.00 | 62 | 1011.6 |
| 20260504223058 | 26 | 190 | 8.0 | 24.1 | 0.00 | 0.00 | 0.00 | 61 | 1011.7 |
| 20260504221600 | 26 | 167 | 11.3 | 22.5 | 0.00 | 0.00 | 0.00 | 60 | 1011.9 |
| 20260504220058 | 26 | 171 | 3.2 | 17.7 | 0.00 | 0.00 | 0.00 | 59 | 1012.0 |
| 20260504214558 | 27 | 187 | 6.4 | 19.3 | 0.00 | 0.00 | 0.00 | 58 | 1012.0 |
| 20260504213057 | 27 | 192 | 6.4 | 19.3 | 0.00 | 0.00 | 0.00 | 56 | 1012.1 |
| 20260504211600 | 27 | 169 | 6.4 | 17.7 | 0.00 | 0.00 | 0.00 | 54 | 1012.2 |
| 20260504210109 | 28 | 172 | 4.8 | 14.5 | 0.00 | 0.00 | 0.00 | 54 | 1012.3 |
| 20260504204607 | 28 | 148 | 4.8 | 12.9 | 0.00 | 0.00 | 0.00 | 53 | 1012.6 |
| 20260504203110 | 28 | 139 | 4.8 | 17.7 | 0.00 | 0.00 | 0.00 | 52 | 1012.9 |
| 20260504201600 | 28 | 161 | 4.8 | 12.9 | 0.00 | 0.00 | 0.00 | 53 | 1013.2 |
| 20260504200100 | 28 | 223 | 6.4 | 16.1 | 0.00 | 0.00 | 0.00 | 52 | 1013.4 |
| 20260504194610 | 28 | 167 | 4.8 | 16.1 | 0.00 | 0.00 | 0.00 | 51 | 1013.6 |
| 20260504193107 | 28 | 191 | 8.0 | 16.1 | 0.00 | 0.00 | 0.00 | 51 | 1013.7 |
| 20260504191600 | 27 | 209 | 8.0 | 17.7 | 0.00 | 0.00 | 0.00 | 51 | 1014.0 |
| 20260504190129 | 27 | 153 | 3.2 | 17.7 | 0.00 | 0.00 | 0.00 | 52 | 1014.2 |
| 20260504184600 | 27 | 232 | 4.8 | 14.5 | 0.00 | 0.00 | 0.00 | 51 | 1014.3 |
| 20260504183101 | 27 | 198 | 8.0 | 22.5 | 0.00 | 0.00 | 0.00 | 52 | 1014.4 |
| 20260504181559 | 27 | 208 | 3.2 | 16.1 | 0.00 | 0.00 | 0.00 | 52 | 1014.5 |
| 20260504180059 | 27 | 187 | 8.0 | 24.1 | 0.00 | 0.00 | 0.00 | 51 | 1014.9 |
| 20260504174608 | 26 | 180 | 8.0 | 19.3 | 0.00 | 0.00 | 0.00 | 52 | 1015.1 |
| 20260504173101 | 26 | 136 | 9.7 | 22.5 | 0.00 | 0.00 | 0.00 | 54 | 1015.2 |